Laramie, WY

2:22 AM MDT on September 21, 2017 (GMT -0600)
Laramie Regional

Weather History for KLAR - October, 2013

Change the Weather History Date:

Sunday, October 13, 2013

  Actual Average Record
Temperature  
Mean Temperature 43 °F 43 °F  
Max Temperature 59 °F 57 °F 73 °F (1989)
Min Temperature 26 °F 29 °F -15 °F (1969)
Degree Days  
Heating Degree Days 22 22  
Month to date heating degree days 288 260  
Since 1 July heating degree days 612 785  
Cooling Degree Days 0 0  
Month to date cooling degree days 0 0  
Year to date cooling degree days 162 67  
Moisture  
Dew Point 33 °F    
Average Humidity 66    
Maximum Humidity 96    
Minimum Humidity 36    
Precipitation  
Precipitation 0.06 in 0.03 in 0.73 in (2007)
Month to date precipitation 0.77 0.37  
Year to date precipitation 10.15 9.63  
Sea Level Pressure  
Sea Level Pressure 29.99 in    
Wind  
Wind Speed 11 mph (South)    
Max Wind Speed 26 mph    
Max Gust Speed 35 mph    
Visibility 8 miles    
Events Rain    
T = Trace of Precipitation, MM = Missing Value Source: NWS Daily Summary

Daily Weather History Graph

Daily Weather History Graph

Search for Another Location

Airport or City:

Trip Planner

Search our weather history database for the weather conditions in past years. The results will help you decide how hot, cold, wet, or windy it might be!

Date:

Astronomy

Oct. 13, 2013 Rise Set
Actual Time 7:12 AM MDT 6:24 PM MDT
Civil Twilight 6:44 AM MDT 6:52 PM MDT
Nautical Twilight 6:12 AM MDT 7:24 PM MDT
Astronomical Twilight 5:40 AM MDT 7:56 PM MDT
Moon 3:20 PM MDT (10/13) 1:22 AM MDT (10/13)
Length of Visible Light 12h 07m
Length of Day
11h 11m
Waxing Gibbous, 70% of the Moon is Illuminated
Oct 13
Waxing Gibbous
Oct 18
Full
Oct 26
Last Quarter
Nov 3
New
Nov 9
First Quarter

Hourly Weather History & Observations

Time (MDT) Temp. Windchill Dew Point Humidity Pressure Visibility Wind Dir Wind Speed Gust Speed Precip Events Conditions
12:53 AM 34.0 °F 25.5 °F 32.0 °F 92% 30.06 in 5.0 mi South 11.5 mph - N/A   Clear
1:53 AM 32.0 °F 25.6 °F 28.9 °F 88% 30.07 in 6.0 mi SSW 6.9 mph - N/A   Clear
2:53 AM 30.9 °F 24.3 °F 28.9 °F 92% 30.06 in 8.0 mi SSW 6.9 mph - N/A   Clear
3:53 AM 28.0 °F 22.8 °F 26.1 °F 92% 30.06 in 8.0 mi SW 4.6 mph - N/A   Clear
4:53 AM 32.0 °F 24.2 °F 28.9 °F 88% 30.05 in 6.0 mi South 9.2 mph - N/A   Clear
5:53 AM 28.0 °F 20.0 °F 27.0 °F 96% 30.09 in 7.0 mi West 8.1 mph - N/A   Clear
6:53 AM 27.0 °F 20.5 °F 25.0 °F 92% 30.11 in 10.0 mi WSW 5.8 mph - N/A   Clear
7:53 AM 28.9 °F - 26.1 °F 89% 30.12 in 9.0 mi Calm Calm - N/A   Mostly Cloudy
8:53 AM 34.0 °F 29.8 °F 30.0 °F 85% 30.11 in 10.0 mi WNW 4.6 mph - N/A   Overcast
9:53 AM 44.1 °F 39.5 °F 35.1 °F 71% 30.04 in 10.0 mi South 8.1 mph - N/A   Partly Cloudy
10:53 AM 51.1 °F - 36.0 °F 56% 29.99 in 10.0 mi SSE 11.5 mph - N/A   Partly Cloudy
11:53 AM 55.0 °F - 36.0 °F 49% 29.96 in 10.0 mi SSE 18.4 mph - N/A   Mostly Cloudy
12:53 PM 57.0 °F - 35.1 °F 44% 29.92 in 10.0 mi SSE 18.4 mph - N/A   Mostly Cloudy
1:53 PM 55.9 °F - 34.0 °F 44% 29.90 in 10.0 mi SE 19.6 mph 25.3 mph N/A   Mostly Cloudy
2:53 PM 59.0 °F - 32.0 °F 36% 29.88 in 10.0 mi SE 20.7 mph - N/A   Mostly Cloudy
3:53 PM 54.0 °F - 33.1 °F 45% 29.91 in 10.0 mi SSE 18.4 mph - N/A   Mostly Cloudy
4:53 PM 51.1 °F - 35.1 °F 54% 29.89 in 10.0 mi SSE 21.9 mph 28.8 mph N/A   Overcast
5:53 PM 50.0 °F - 36.0 °F 59% 29.92 in 10.0 mi SE 13.8 mph - N/A   Overcast
6:53 PM 43.0 °F 36.8 °F 37.9 °F 82% 30.00 in 10.0 mi SE 11.5 mph - 0.01 in   Partly Cloudy
7:53 PM 39.0 °F 33.4 °F 37.0 °F 93% 29.99 in 7.0 mi SE 8.1 mph - N/A   Clear
8:53 PM 42.1 °F 34.9 °F 37.9 °F 85% 29.97 in 9.0 mi WSW 13.8 mph - N/A   Overcast
9:14 PM 42.8 °F 41.1 °F 39.2 °F 87% 30.03 in 2.0 mi Variable 3.5 mph - 0.03 in Rain Rain
9:18 PM 42.8 °F - 39.2 °F 87% 30.03 in 3.0 mi Calm Calm - 0.04 in Rain Light Rain
9:53 PM 42.1 °F 38.4 °F 39.0 °F 89% 29.88 in 10.0 mi South 5.8 mph - 0.04 in   Overcast
10:53 PM 41.0 °F 35.8 °F 39.0 °F 93% 29.82 in 9.0 mi South 8.1 mph - 0.01 in   Mostly Cloudy
11:53 PM 37.9 °F 35.5 °F 36.0 °F 93% 29.76 in 6.0 mi South 3.5 mph - N/A   Partly Cloudy